LEMUR 4.8

Last updated on Tue Nov 24 2020 00:02:06 GMT+0000 (Coordinated Universal Time)

1 46924U 98067RU 20328.33766067 .00026072 00000-0 45384-3 0 9992 2 46924 51.6427 280.8422 0003246 77.0170 283.1182 15.50582639 2848
UTC large
Height (km)
Speed (km/s)
/
Latitude / Longitude
Inclination (degrees)
Orbital Period (minutes)
Azimuth
Elevation
Range (km)
Doppler Factor

Next 0 passes for location: London (51.5072 / 0.1276)

Sorry there are no passes over London.